Starlink 1997

operational
NORAD ID: 47592 Int'l Des: 2021-009 Owner: SPXS Country: US Constellation: starlink
LEOCIRCULARSTARLINK_TYPE

Über Starlink 1997

Beschreibung wird geladen...

Live-Position

3D-Globus wird geladen...

Nächste Überflüge

Höhenverlauf

Altitude vs Time

uPlot chart will show altitude changes over time

Zweizeiliger Elementsatz

1 47592U 21009AW 26035.00002314 .00068851 00000-0 89328-3 0 9996
2 47592 53.0443 164.8917 0005606 300.3087 227.9451 15.58216983 5926
Epoch: 4. Feb. 2026 • Age: 19 hours

Aktueller Status

Höhe 401.4 km
Geschwindigkeit 7.67 km/s
Subsatellitenpunkt -30.52°S, 48.01°W
Startdatum 4. Feb. 2021
Alter 4.9 years
Typ internet

Technische Details

Klassifizierung Payload
Masse 260.00 kg
Trockenmasse 248.00 kg
Gesamtmasse 260.00 kg
Länge 0.20 m
Durchmesser 2.80 m
Spannweite 9.00 m
Form Box + pan
Hersteller SPXS
Bus-Typ Starlink
Phasenstatus In Orbit
Besitzer/Staat SPXS/US

Große Konstellationen

Loading constellations...